www.pogodaiklimat.ru

Погода и климат >> Архив погоды >> Россия >> Камчатский край >> Большерецк


ПОГОДА в Большерецке

  • Прогноз погоды в Большерецке
  • Монитор погоды в Большерецке

АРХИВ ПОГОДЫ в Большерецке

Время (UTC), дата Ветер
(напр.,м/с)
 
Видим.   Явления Облачность Т
(С)
Тd
(С)
f
(%)
Тe
(С)
Тes
(С)
Комфортность P
(гПа)
Po
(гПа)
Тmin
(С)
Tmax
(С)
R
(мм)
R24
(мм)
S
(см)
15 15.09 В 1 20 км 8/0
[Ac lent Ci fib]
+4.8 +4.6 99 +3 +3 1016.7 1013.0
18 15.09 В 1 20 км 8/0
[Ci fib]
+4.2 +4.2 100 +3 +3 1017.8 1014.1
21 15.09 штиль 0 200 м туман 8/0
[Ci fib]
+4.8 +4.8 100 +4 +5 1019.3 1015.5 +3.1
00 16.09 Ю 1 50 км {туман} 8/4 600 м
[Cu hum Ci fib]
+11.4 +6.1 70 +11 +16 1019.6 1015.9
03 16.09 З 1 50 км 5/3 600 м
[Cu hum Ci fib]
+13.6 +8.6 72 +14 +20 1018.5 1014.9
06 16.09 З 3 50 км 3/3 600 м
[Sc]
+11.4 +6.8 73 +10 +11 1018.5 1014.9
09 16.09 СЗ 2 н/о н/о +5.1 +5.1 100 +2 +2 1018.7 1014.9 +13.9 0.3
12 16.09 СВ 1 20 км ясно +4.8 +4.3 97 +3 +3 1018.5 1014.8
15 16.09 СВ 2 н/о н/о +0.5 +0.5 100 -3 -3 1016.3 1012.5
18 16.09 В 1 20 км 6/0
[Ci]
+1.8 +1.3 96 -0 -0 1015.5 1011.7
21 16.09 СВ 2 50 км 6/3 600 м
[Sc Ci]
+3.5 +3.0 97 0 +1 1012.9 1009.2 -0.2
00 17.09 В 2 50 км 10/5 600 м
[Sc Cs]
+11.9 +5.4 64 +11 +14 1010.3 1006.7
03 17.09 ЮВ 4 н/о н/о +10.4 +8.1 86 +8 +8 1008.6 1005.0
06 17.09 В 3 10 км слаб. ливневой дождь 10/10 300 м
[Cb cap]
+9.6 +9.4 99 +7 +7 1006.2 1002.6
09 17.09 В 5 10 км слаб. ливневой дождь 10/10 300 м
[Cb cap]
+8.8 +8.8 100 +5 +5 1004.7 1001.1 +13.5 16
12 17.09 В 6-10
{11}
10 км слаб. ливневой дождь 10/10 300 м
[Cb cap]
+8.4 +7.8 96 +4 +4 1002.9 999.3
15 17.09 В 5-10
{11}
10 км слаб. ливневой дождь 10/10 600 м
[Cb cap]
+8.5 +6.6 88 +5 +5 1002.3 998.7
18 17.09 СВ 3
{10}
10 км слаб. ливневой дождь 10/10 300 м
[Cb cap]
+7.8 +7.6 99 +5 +5 1002.0 998.4
21 17.09 СВ 2 10 км слаб. ливневой дождь 10/10 300 м
[Cb cap]
+8.2 +7.6 96 +6 +6 1003.4 999.8 +7.4 5
00 18.09 С 1 н/о н/о +11.3 +10.8 97 +11 +11 1004.6 1001.0
03 18.09 С 3 н/о н/о +12.2 +11.3 94 +11 +11 1005.1 1001.5
06 18.09 С 3 50 км 9/4 600 м
[Sc Ac trans]
+12.8 +10.5 86 +11 +12 1006.2 1002.6
09 18.09 СЗ 4 н/о н/о +9.5 +9.5 100 +6 +6 1008.3 1004.7 +13.2 1
12 18.09 СЗ 1 20 км 9/4 600 м
[Sc Ci fib]
+8.9 +8.3 96 +8 +8 1010.0 1006.3
15 18.09 СЗ 2 20 км 8/0
[Ci fib]
+8.3 +8.1 99 +6 +6 1010.7 1007.0
18 18.09 штиль 0 н/о н/о +7.7 +7.7 100 +7 +7 1010.7 1007.1
21 18.09 СВ 2 200 м туман ?/? +8.0 +8.0 100 +6 +6 1011.7 1008.0 +7.6
00 19.09 В 1 20 км {туман} 10/10 600 м
[Sc]
+11.4 +9.8 90 +11 +11 1011.5 1007.9
03 19.09 ЮЗ 2 н/о н/о +14.3 +9.3 72 +14 +14 1011.1 1007.5
06 19.09 СЗ 2 50 км 8/5 600 м
[Cu hum Ci fib]
+12.6 +9.7 82 +12 +12 1011.1 1007.5
09 19.09 СЗ 1 н/о н/о +7.4 +7.4 100 +6 +6 1011.0 1007.4 +14.3
12 19.09 С 2 20 км 10/0
[Ci fib]
+6.0 +5.8 99 +3 +3 1010.3 1006.6
15 19.09 В 1 20 км 8/0
[Ci fib]
+4.0 +4.0 100 +2 +2 1009.0 1005.3
18 19.09 В 1 н/о н/о +5.5 +5.5 100 +4 +4 1009.1 1005.4
21 19.09 В 2 200 м туман ?/? +7.0 +7.0 100 +5 +5 1008.4 1004.8 +3.9
00 20.09 В 2 50 км {туман} 10/6 600 м
[Sc Cs]
+9.6 +8.4 92 +8 +10 1007.0 1003.4
03 20.09 Ю 3 50 км 10/10 600 м
[Cb cap]
+13.1 +4.4 56 +12 +12 1005.6 1002.0
06 20.09 С 3 20 км слаб. ливневой дождь 10/10 600 м
[Cb cap]
+10.2 +9.8 97 +8 +8 1004.9 1001.3
09 20.09 В 2 20 км слаб. ливневой дождь 10/10 600 м
[Cb cap]
+9.0 +9.0 100 +7 +7 1004.8 1001.2 +13.6 2
12 20.09 СВ 1 20 км слаб. ливневой дождь 10/10 600 м
[Cb cap]
+7.4 +7.4 100 +6 +6 1004.1 1000.5
15 20.09 СВ 3 10 км слаб. ливневой дождь 10/10 600 м
[Cb cap]
+7.1 +7.1 100 +4 +4 1003.8 1009.2
18 20.09 СВ 3 10 км слаб. ливневой дождь 10/10 600 м
[Cb cap]
+7.0 +6.1 94 +4 +4 1004.2 1000.6
21 20.09 С 2 н/о {ливн. осадки} н/о +8.4 +7.6 95 +6 +7 1005.4 1001.8 +6.9 6
00 21.09 С 3 50 км {ливн. осадки} 9/6 600 м
[Sc Ac trans]
+10.6 +9.0 90 +8 +10 1006.4 1002.8
03 21.09 СЗ 2 50 км 8/5 600 м
[Cu hum Ci fib]
+13.8 +10.4 80 +13 +16 1006.7 1003.1
06 21.09 СЗ 4 50 км 8/5 600 м
[Cu hum Ci fib]
+11.2 +8.8 85 +9 +9 1008.4 1004.8
09 21.09 СЗ 4 н/о н/о +8.3 +8.3 100 +5 +5 1011.4 1007.7 +14.1 0.3
12 21.09 СЗ 2 20 км 4/0
[Ci fib]
+7.4 +6.5 94 +5 +5 1013.8 1010.1
15 21.09 СЗ 3 20 км 4/0
[Ci fib]
+7.4 +6.5 94 +4 +4 1013.8 1010.1
18 21.09 С 1 н/о н/о +3.7 +3.7 100 +2 +2 1015.7 1012.0
21 21.09 С 2 50 км 6/3 600 м
[Sc Ci fib]
+4.2 +3.2 93 +1 +2 1017.3 1013.6 +3.5
00 22.09 СЗ 4 50 км 6/4 600 м
[Sc Ci fib]
+9.2 +0.9 56 +7 +9 1017.1 1013.4
03 22.09 С 6-10
{11}
50 км 9/4 600 м
[Sc Ac trans]
+11.0 +3.0 58 +8 +9 1017.0 1013.3
06 22.09 СЗ 4-10
{10}
50 км 9/9 600 м
[Sc]
+10.4 +4.1 65 +8 +8 1017.0 1013.3
09 22.09 З 2 н/о н/о +6.3 +5.5 95 +4 +4 1015.8 1012.1 +11.5
12 22.09 Ю 1 20 км 9/9 600 м
[Sc]
+5.0 +4.5 97 +4 +4 1015.9 1012.2

 

Местоположение метеостанции Большерецк (Камчатский край, Россия): широта 52.83 долгота 156.30 высота над уровнем моря 30 м.

В архиве по умолчанию представлена погода в Большерецке за последнюю неделю. Архивные данные за месяц целиком и за предыдущие месяцы, начиная с января 2011 года, Вы можете получить, выбрав интересующий диапазон дат из раскрывающегося списка и нажав кнопку "Ввод!".


*Определитесь, кто Вы:
робот инопланетянин человек

Внимание! Время в таблицах - всемирное. Для получения местного времени необходимо прибавить поправку, которая равна 12 ч.

Смотрите также архив погоды в соседних городах и на ближайших метеорологических станциях:

Погода в Начиках (Камчатский край, Россия) (99 км)
Погода в Сосновке (Камчатский край, Россия) (137 км)
Погода в Петропавловск-Камч. 2 (Камчатский край, Россия) (150 км)
Погода в Озерной (Камчатский край, Россия) (150 км)
Погода в Петропавловск-Камчатском (Камчатский край, Россия) (155 км)
Погода в Водопадной (Камчатский край, Россия) (161 км)
Погода в Петропавловском Маяке (Камчатский край, Россия) (161 км)
Погода в Соболево (Камчатский край, Россия) (166 км)
Погода в Пущино (Камчатский край, Россия) (188 км)
Погода на Мысе Лопатка (Камчатский край, Россия) (219 км)

Пояснения к столбцам:

Ветер - указаны скорость ветра в м/с - средняя за 10 мин, порывы в срок и между сроками (в фигурных скобках) и направление, откуда дует ветер: С - северный, СВ - северо-восточный, В - восточный, ЮВ - юго-восточный, Ю - южный, ЮЗ - юго-западный, З - западный, СЗ - северо-западный.
Видимость - горизонтальная дальность видимости в метрах или километрах. При видимости от 1 до 10 км при отсутствии осадков обычно наблюдается дымка, при ухудшении видимости до 1 км и менее - туман. В сухую погоду видимость может ухудшаться дымом, пылью или мглою.
Явления - указаны атмосферные явления, наблюдавшиеся в срок или в последний час перед сроком; фигурными скобками обозначены явления, наблюдавшиеся между сроками (за 1-3 часа до срока); квадратными скобками обозначены град или гололедные отложения с указанием их диаметра в мм.
Облачность - указаны через наклонную черту общая и нижняя облачность в баллах и высота нижней границы облаков в метрах; квадратными скобками обозначены формы облаков: Ci - перистые, Cs - перисто-слоистые, Cc - перисто-кучевые, Ac - высококучевые, As - высокослоистые, Sc - слоисто-кучевые, Ns - слоисто-дождевые, Cu - кучевые, Cb - кучево-дождевые. Подробнее классификацию облаков см. в Атласе облаков (PDF).
T - Температура воздуха - температура, измеренная на высоте 2 м над землей.
Td - Температура точки росы - температура, при понижении до которой содержащийся в воздухе водяной пар достигнет насыщения.
f - Относительная влажность воздуха - влажноcть воздуха, измеренная на высоте 2 м над землей.
Te - Эффективная температура - температура, которую ощущает одетый по сезону человек в тени. Характеристика душности погоды. При расчете учитывается влияние влажности воздуха и скорости ветра на теплоощущения человека.
Tes - Эффективная температура на солнце - температура, которую ощущает человек, с поправкой на солнечный нагрев. Характеристика знойности погоды. Зависит от высоты солнца над горизонтом, облачности и скорости ветра. Ночью, в пасмурную погоду, а также при ветре 12 м/с и более поправка равна нулю.
P - Атмосферное давление - приведенное к уровню моря атмосферное давление.
Po - Атмосферное давление - измеренное на уровне метеостанции атмосферное давление.
Tmin - Минимальная температура - минимум температуры воздуха на высоте 2 м над землей.
Tmax - Максимальная температура - максимум температуры воздуха на высоте 2 м над землей.
R - Количество осадков - Количество выпавших осадков за период времени, мм. При наведении курсора мыши на число - период времени, за который выпало указанное количество осадков.
R24 - Количество осадков - Количество выпавших осадков за 24 часа, мм.
S - Снежный покров - Высота снежного покрова, см. При наведении курсора мыши на число - состояние снежного покрова и степень покрытия местности в баллах.